AO-07 1 07530U 74089B 22314.20396779 -.00000042 00000-0 24966-4 0 9996 2 07530 101.9241 294.6262 0012388 121.5928 249.4296 12.53658534195739 UO-11 1 14781U 84021B 22314.38401852 .00001429 00000-0 17780-3 0 9991 2 14781 97.6335 295.3050 0007793 191.1841 168.9202 14.83958381 82683 AO-16 1 20439U 90005D 22314.56955049 .00000201 00000-0 90370-4 0 9993 2 20439 98.8628 294.4786 0011685 120.8518 353.8769 14.32957335713595 LO-19 1 20442U 90005G 22314.37256591 .00000210 00000-0 93294-4 0 9990 2 20442 98.8150 281.6032 0012837 99.5448 260.7186 14.33110645714007 HUBBLE 1 20580U 90037B 22314.35631307 .00003542 00000-0 19473-3 0 9995 2 20580 28.4706 281.6307 0002635 168.1429 318.6330 15.11233262588302 MET-2/21 1 22782U 93055A 22314.64516854 .00000016 00000-0 11021-5 0 9991 2 22782 82.5485 258.1937 0021148 299.5258 234.5282 13.83863114474498 AO-27 1 22825U 93061C 22314.38199215 .00000132 00000-0 68621-4 0 9991 2 22825 98.8726 348.4068 0008230 353.8481 6.2599 14.30208452519015 IO-26 1 22826U 93061D 22314.36974090 .00000149 00000-0 74790-4 0 9994 2 22826 98.8671 348.2653 0008510 339.3495 20.7341 14.30558733519272 FO-29 1 24278U 96046B 22314.54316273 -.00000026 00000-0 12085-4 0 9990 2 24278 98.5142 318.1187 0349230 264.2053 91.9181 13.53124202295363 NOAA-15 1 25338U 98030A 22314.69913139 .00000172 00000-0 90130-4 0 9991 2 25338 98.6312 342.2382 0009602 227.0896 132.9479 14.26194384274119 GO-32 1 25397U 98043D 22314.39138356 .00000110 00000-0 67805-4 0 9992 2 25397 98.8371 265.3611 0002209 64.6831 295.4576 14.23786526264193 ISS 1 25544U 98067A 22314.94020086 .00014746 00000-0 26636-3 0 9999 2 25544 51.6438 329.5979 0006786 59.6780 12.8876 15.49931487367947 NO-44 1 26931U 01043C 22314.55391295 .00000215 00000-0 11353-3 0 9994 2 26931 67.0531 41.2743 0005243 264.6350 95.4153 14.30761125102309 SO-50 1 27607U 02058C 22314.17310628 .00001341 00000-0 20257-3 0 9995 2 27607 64.5546 215.9003 0081388 266.7198 92.4591 14.76402648 69884 CO-55 1 27844U 03031E 22314.45046309 .00000369 00000-0 18488-3 0 9995 2 27844 98.6803 319.9517 0010577 44.1752 316.0269 14.22535991 4630 CO-57 1 27848U 03031J 22314.45938633 .00000311 00000-0 16030-3 0 9997 2 27848 98.6845 320.4468 0010660 57.6033 302.6174 14.22081347 4419 RS-22 1 27939U 03042A 22314.86115709 .00001638 00000-0 29679-3 0 9992 2 27939 98.2129 95.7459 0013887 105.0196 255.2539 14.67607039 22515 NOAA-18 1 28654U 05018A 22314.73741763 .00000205 00000-0 13433-3 0 9993 2 28654 98.9354 24.9588 0013275 278.1978 81.7688 14.12804755900724 CO-58 1 28895U 05043F 22314.32470221 .00001547 00000-0 29948-3 0 9999 2 28895 98.1270 83.6471 0017275 45.2935 314.9671 14.64646259908768 Falconsat-3 1 30776U 07006E 22314.46832289 .00121029 00000-0 92102-3 0 9992 2 30776 35.4283 14.8569 0004709 116.2308 243.8913 15.70908956872393 CO-65 1 32785U 08021C 22314.37577876 .00003004 00000-0 31494-3 0 9999 2 32785 97.6774 280.7931 0014215 107.5083 252.7690 14.90202448788215 AAUSAT2 1 32788U 08021F 22314.71932097 .00006282 00000-0 52348-3 0 9992 2 32788 97.5510 295.0866 0011489 3.6504 356.4801 14.98916053790430 DO-64 1 32789U 08021G 22314.67490960 .00017787 00000-0 88044-3 0 9990 2 32789 97.3281 335.9467 0009997 162.2371 197.9215 15.17805698794176 CO-66 1 32791U 08021J 22314.41167911 .00005173 00000-0 49464-3 0 9991 2 32791 97.6304 286.1766 0014518 67.0759 293.1991 14.93573678788978 RS-30 1 32953U 08025A 22314.69578395 .00000024 00000-0 10000-3 0 9991 2 32953 82.4994 92.9873 0018744 301.9585 57.9671 12.43115129656509 PRISM 1 33493U 09002B 22314.45896398 .00006880 00000-0 53694-3 0 9999 2 33493 98.2509 309.6073 0017814 60.1127 300.1862 15.01374323750879 NOAA-19 1 33591U 09005A 22314.68463313 .00000209 00000-0 13788-3 0 9992 2 33591 99.1322 351.7907 0014615 134.9759 225.2600 14.12635770709094 SRMSAT 1 37841U 11058D 22314.73884815 .00000452 00000-0 10311-3 0 9994 2 37841 19.9715 90.6510 0011831 150.8927 237.8278 14.10792205572141 HRBE 1 37855U 11061F 22314.52107989 .00011863 00000-0 48434-3 0 9995 2 37855 101.7168 151.4440 0144958 343.7666 15.8933 15.15552968603802 RS-40 1 38735U 12041C 22314.55243112 .00000023 00000-0 97946-4 0 9993 2 38735 82.4781 174.4199 0018021 53.1291 307.1448 12.42588568466660 ZACUBE-1 1 39417U 13066B 22314.35071772 .00003035 00000-0 37026-3 0 9996 2 39417 97.6566 279.4485 0055373 286.8670 72.6477 14.82979776484744 Delfi-N3xt 1 39428U 13066N 22314.78830055 .00002816 00000-0 43166-3 0 9990 2 39428 97.8223 242.9517 0115781 168.9408 191.4385 14.69967918480203 GOMX-1 1 39430U 13066Q 22314.80854912 .00003009 00000-0 54022-3 0 9992 2 39430 97.7978 213.5761 0146963 303.5995 55.1250 14.60614358477651 LO-74 1 39440U 13066AA 22314.42654078 .00003804 00000-0 51318-3 0 9990 2 39440 97.7452 266.0119 0078676 19.0691 341.3437 14.77548195481831 AO-73 1 39444U 13066AE 22314.66063291 .00004034 00000-0 47624-3 0 9992 2 39444 97.6440 282.1779 0053884 272.6747 86.8300 14.84203662483797 SPROUT 1 39770U 14029E 22314.80958544 .00013006 00000-0 12503-2 0 9990 2 39770 97.9540 72.9484 0007769 326.7227 33.3326 14.93133565459484 DTUSAT-2 1 40030U 14033W 22314.48457437 .00003912 00000-0 40448-3 0 9990 2 40030 97.9470 247.9411 0009992 297.9340 62.0866 14.90673771455395 EO-80 1 40032U 14033Y 22314.39221371 .00003558 00000-0 36860-3 0 9997 2 40032 97.9473 247.8637 0009912 299.8220 60.2012 14.90656139455357 HODOYOSHI-1 1 40299U 14070B 22314.81895438 .00008980 00000-0 32525-3 0 9999 2 40299 97.2269 18.6352 0011164 345.4186 151.7056 15.28551979445404 FIREBIRD FU3 1 40377U 15003B 22314.66676992 .00028771 00000-0 72995-3 0 9993 2 40377 99.0780 212.5976 0085981 247.6343 111.5767 15.35864795430815 FIREBIRD FU4 1 40378U 15003C 22314.68253437 .00028270 00000-0 71514-3 0 9991 2 40378 99.0791 212.8655 0085968 247.0674 112.1475 15.35957159430822 GRIFEX 1 40379U 15003D 22314.61639544 .00018854 00000-0 60964-3 0 9996 2 40379 99.0879 196.8858 0106329 296.4268 62.6085 15.26755956429902 XW-2A 1 40903U 15049E 22314.83507497 .00055052 00000-0 63882-3 0 9997 2 40903 97.1592 14.0836 0006139 293.1699 157.7972 15.61594972402037 XW-2C 1 40906U 15049H 22314.82817855 .00009302 00000-0 42418-3 0 9990 2 40906 97.4965 317.2521 0012819 199.5726 238.4673 15.20786617395151 XW-2D 1 40907U 15049J 22314.78049370 .00010400 00000-0 46158-3 0 9991 2 40907 97.4942 317.3302 0011779 194.3730 252.7299 15.21694834395206 LILACSAT-2 1 40908U 15049K 22314.80335419 .00005267 00000-0 27128-3 0 9998 2 40908 97.5228 314.0685 0013631 223.7720 213.2321 15.16756474394668 XW-2E 1 40909U 15049L 22314.81159375 .00016913 00000-0 64651-3 0 9997 2 40909 97.4639 322.2737 0011331 168.0318 270.5984 15.26617214395719 XW-2F 1 40910U 15049M 22314.79233466 .00016564 00000-0 64351-3 0 9999 2 40910 97.4712 321.4264 0012547 170.6173 276.1062 15.26068237395474 XW-2B 1 40911U 15049N 22314.81573072 .00010958 00000-0 48798-3 0 9991 2 40911 97.4934 317.9149 0012021 194.9036 244.0255 15.21563409395099 DCBB 1 40912U 15049P 22314.80914525 .00019750 00000-0 68778-3 0 9992 2 40912 97.4331 325.7969 0013309 136.4907 309.9082 15.29625245396091 TW-1A 1 40928U 15051D 22314.78997166 .00192574 00000-0 96782-3 0 9993 2 40928 97.0197 337.5749 0006982 167.0041 311.0308 15.81153978401155 IO-86 1 40931U 15052B 22314.79229097 .00001598 00000-0 13270-3 0 9996 2 40931 5.9961 205.0469 0011919 81.7188 278.4288 14.76916645385014 AO-85 1 40967U 15058D 22313.34851000 .00003198 00000-0 35843-3 0 5327 2 40967 64.7770 350.8846 0175216 152.2081 208.8525 14.78126707 82074 ATHENOXAT-1 1 41168U 15077C 22314.68922727 .00032470 00000-0 11931-2 0 9998 2 41168 14.9888 83.4481 0008982 136.1483 349.5975 15.25805940382634 ChubuSat-2 1 41338U 16012B 22314.30655114 .00003139 00000-0 22714-3 0 9991 2 41338 31.0014 174.8588 0012835 161.3863 198.7244 15.02000629369422 ChubuSat-3 1 41339U 16012C 22314.77556306 .00003740 00000-0 27168-3 0 9992 2 41339 31.0095 168.7825 0012605 174.7277 275.6711 15.02033751369493 Horyu-4 1 41340U 16012D 22314.53851074 .00005116 00000-0 35116-3 0 9999 2 41340 31.0026 145.5646 0012637 216.9561 143.0205 15.04379207369737 e-st@r-II 1 41459U 16025D 22314.77951489 .00024952 00000-0 98067-3 0 9994 2 41459 98.1923 131.2505 0135317 131.4268 229.8581 15.17506939359658 AAUSAT4 1 41460U 16025E 22314.81524253 .00034699 00000-0 11206-2 0 9994 2 41460 98.1827 139.0292 0111048 101.6512 259.6443 15.26164654360203 LO-87 1 41557U 16033B 22314.85932808 .00028101 00000-0 72469-3 0 9993 2 41557 97.3906 53.1906 0009931 206.7767 270.4900 15.39096403359862 NuSat2 1 41558U 16033C 22314.51513094 .00029750 00000-0 72145-3 0 9991 2 41558 97.4147 59.3906 0009580 195.8377 293.5415 15.40964642360101 Lapan A3 1 41603U 16040E 22314.83152424 .00002779 00000-0 12762-3 0 9992 2 41603 97.1908 345.3987 0013080 14.3360 91.0501 15.21116131354288 Pratham 1 41783U 16059A 22314.67988064 .00000679 00000-0 13879-3 0 9997 2 41783 97.8971 350.2668 0034638 72.7510 287.7479 14.63498793327013 TY-1 1 41844U 16066D 22314.79773462 .00023428 00000-0 69733-3 0 9997 2 41844 97.3851 326.4841 0014008 121.1735 51.3315 15.34618606334016 CAS-2T 1 41847U 16066G 22314.46174482 .00001751 00000-0 26922-3 0 9999 2 41847 98.5346 18.8759 0363610 132.9031 230.3293 14.38888056315346 EO-88 1 42017U 17008BX 22314.72893435 .00028167 00000-0 69479-3 0 9995 2 42017 97.2514 19.0624 0005372 84.9406 275.2454 15.40489046319546 CAS-4B 1 42759U 17034B 22314.85719378 .00008715 00000-0 49407-3 0 9990 2 42759 43.0189 245.1098 0008959 142.2762 275.0138 15.13186427298528 CAS-4A 1 42761U 17034D 22314.82557237 .00009284 00000-0 52411-3 0 9995 2 42761 43.0176 243.9621 0009323 142.5293 312.8853 15.13277660298527 NIUSat 1 42766U 17036B 22314.67550706 .00011916 00000-0 42229-3 0 9990 2 42766 97.1861 347.3857 0013421 159.1657 201.0133 15.29157951299129 Aalto 1 1 42775U 17036L 22314.74057647 .00009005 00000-0 33293-3 0 9991 2 42775 97.1814 347.0765 0012452 158.8406 201.3351 15.27853729299098 URSA MAIOR 1 42776U 17036M 22314.72440812 .00010949 00000-0 39448-3 0 9997 2 42776 97.1826 347.9554 0012067 156.9003 203.2782 15.28656073299139 Max Valier Sat 1 42778U 17036P 22314.54708542 .00012451 00000-0 43371-3 0 9996 2 42778 97.1880 350.7183 0010775 156.7294 203.4437 15.29743128299212 Pegasus 1 42784U 17036V 22314.64580258 .00015714 00000-0 50195-3 0 9993 2 42784 97.1816 352.0106 0010149 155.1616 205.0117 15.32495809299378 NUDATSat 1 42787U 17036Y 22314.84317632 .00047140 00000-0 11544-2 0 9994 2 42787 97.1846 357.6408 0008545 139.1725 221.0161 15.40577490299575 SUCHAI 1 1 42788U 17036Z 22314.37358094 .00019672 00000-0 57577-3 0 9996 2 42788 97.1816 353.8448 0009377 149.1866 210.9930 15.35235386299532 SKCUBE 1 42789U 17036AA 22314.32923979 .00018298 00000-0 55750-3 0 9996 2 42789 97.1815 353.0641 0009528 150.5278 209.6505 15.33978364299407 VZLUSAT 1 1 42790U 17036AB 22314.09098275 .00039015 00000-0 96918-3 0 9995 2 42790 97.1834 356.8264 0008241 140.2898 219.8953 15.40187291299608 VENTA 1 1 42791U 17036AC 22314.37093992 .00014180 00000-0 44848-3 0 9999 2 42791 97.1823 352.8321 0009381 151.9149 208.2601 15.32843858299387 Robusta 1B 1 42792U 17036AD 22314.35350443 .00019541 00000-0 57909-3 0 9993 2 42792 97.1815 353.7864 0008985 149.3983 210.7786 15.34847995299466 D-SAT 1 42794U 17036AF 22314.45810494 .00004263 00000-0 35737-3 0 9993 2 42794 97.4556 312.2582 0120261 316.7399 42.4424 14.93404214293261 TechnoSat 1 42829U 17042E 22314.55292084 .00001689 00000-0 17039-3 0 9993 2 42829 97.4020 160.0734 0012495 235.4122 124.5920 14.92267332289876 AO-91 1 43017U 17073E 22314.69362339 .00005108 00000-0 37645-3 0 9998 2 43017 97.6546 202.8449 0246372 68.6126 294.1182 14.82534279268778 PICSAT 1 43132U 18004X 22314.74629178 .00020146 00000-0 57660-3 0 9992 2 43132 97.3600 30.6123 0006979 184.9485 175.1691 15.35955898268829 AO-92 1 43137U 18004AC 22314.72203429 .00014979 00000-0 47553-3 0 9999 2 43137 97.3559 28.7325 0006960 191.9419 168.1659 15.32736029268718 TianYi 2 1 43155U 18008A 22314.81120972 .00012646 00000-0 62995-3 0 9990 2 43155 97.3343 8.5474 0015263 1.6346 109.8602 15.17601549265451 Zhou Enlai 1 43156U 18008B 22314.84443527 .00014561 00000-0 72758-3 0 9994 2 43156 97.3400 8.5037 0012195 2.9178 110.2765 15.17497159265387 TianYi 6 1 43158U 18008D 22314.74470078 .00012102 00000-0 62967-3 0 9996 2 43158 97.3337 6.0668 0012566 6.0167 119.9027 15.16114281265250 S-Net D 1 43186U 18014G 22314.69966079 .00003051 00000-0 25946-3 0 9998 2 43186 97.6484 217.5814 0010889 154.2688 205.9079 14.98531835260816 S-Net B 1 43187U 18014H 22314.49968763 .00003084 00000-0 26223-3 0 9994 2 43187 97.6479 217.3300 0010883 155.0179 205.1573 14.98527464260787 S-Net A 1 43188U 18014J 22314.70031513 .00002953 00000-0 25132-3 0 9995 2 43188 97.6485 217.5988 0010853 154.5090 205.6670 14.98529065260818 S-Net C 1 43189U 18014K 22314.70131243 .00002814 00000-0 23977-3 0 9998 2 43189 97.6477 217.5144 0010810 154.4389 205.7371 14.98524540259367 FMN 1 1 43192U 18015A 22314.86012669 .00078758 00000-0 14238-2 0 9999 2 43192 97.5508 105.0127 0010054 232.7911 267.9829 15.49366566266015 Shaonian Xing 1 43199U 18015H 22314.84338443 .00038789 00000-0 96360-3 0 9992 2 43199 97.5314 98.4510 0011597 238.8733 261.8809 15.40155344265921 SurfSat 1 43614U 18070B 22314.51794976 .00097180 00000-0 74884-3 0 9993 2 43614 93.0045 161.1649 0008391 131.9497 228.2491 15.71642952233855 CP-7 DAVE 1 43615U 18070C 22314.07635724 .00094981 00000-0 85297-3 0 9996 2 43615 93.0040 160.6212 0008877 139.2653 220.9282 15.67928020233726 CubeBel-1 1 43666U 18083E 22314.84005978 .00016665 00000-0 64538-3 0 9991 2 43666 97.4072 342.0280 0012700 169.0353 296.2079 15.26168878223781 Changshagaoxin 1 43669U 18083H 22314.84716031 .00015162 00000-0 61984-3 0 9996 2 43669 97.4029 337.5586 0009503 165.7571 300.4714 15.24411437223588 Ten-Koh 1 43677U 18084G 22314.61863002 .00002045 00000-0 20941-3 0 9996 2 43677 97.9851 86.2121 0016294 146.2157 214.0103 14.91554899219464 PO-101 1 43678U 18084H 22314.82473221 .00001199 00000-0 12259-3 0 9992 2 43678 97.9928 90.0173 0010286 155.5824 204.5872 14.92472885219685 IRVINE 01 1 43693U 18088D 22313.88327529 .00131778 00000-0 19764-2 0 9991 2 43693 85.0261 211.3613 0001920 333.3972 26.7189 15.54463351222655 QO-100 1 43700U 18090A 22314.72821465 .00000153 00000-0 00000 0 0 9997 2 43700 0.0086 298.2465 0001555 317.4734 82.1046 1.00273546 14746 Reaktor Hello World 1 43743U 18096AA 22314.74793844 .00020201 00000-0 53512-3 0 9997 2 43743 97.3430 34.2754 0012566 251.4543 108.5338 15.38306064220411 MinXSS-2 1 43758U 18099A 22314.75927419 .00003729 00000-0 31731-3 0 9999 2 43758 97.6091 19.1024 0015455 129.9347 230.3237 14.98324515215003 AO-95 1 43770U 18099N 22314.46265736 .00004784 00000-0 41714-3 0 9992 2 43770 97.6047 16.9559 0015167 140.6036 219.6293 14.97238961214853 RANGE-B 1 43772U 18099Q 22314.11979042 .00005352 00000-0 45586-3 0 9991 2 43772 97.6158 18.6678 0014546 131.4029 228.8447 14.98103003214839 RANGE-A 1 43773U 18099R 22314.43283133 .00002770 00000-0 24767-3 0 9995 2 43773 97.5960 15.5578 0014008 130.7189 229.5252 14.96611880214823 MOVE-II 1 43780U 18099Y 22314.14244298 .00008506 00000-0 70323-3 0 9992 2 43780 97.6116 18.1729 0013963 133.2721 226.9670 14.99095136214874 SNUSat 2 1 43782U 18099AA 22314.76299143 .00003047 00000-0 26691-3 0 9995 2 43782 97.6046 17.7479 0012982 127.0193 233.2219 14.97346900214921 SnugLite 1 43784U 18099AC 22314.70998387 .00003997 00000-0 34578-3 0 9994 2 43784 97.5999 17.3200 0015383 135.6949 224.5508 14.97638086214944 ITASat 1 1 43786U 18099AE 22314.37916305 .00003599 00000-0 31473-3 0 9998 2 43786 97.6067 17.8663 0015575 136.2672 223.9787 14.97270858214888 EAGLET 1 1 43790U 18099AJ 22314.12880396 .00003967 00000-0 34616-3 0 9997 2 43790 97.6066 18.1662 0014296 138.0295 222.2026 14.97317300214584 ESEO 1 43792U 18099AL 22314.66223081 .00002528 00000-0 22684-3 0 9994 2 43792 97.6016 17.6702 0014405 134.3473 225.8932 14.96537848214696 CSIM 1 43793U 18099AM 22314.18403305 .00006400 00000-0 52201-3 0 9992 2 43793 97.6080 19.2673 0013952 135.4806 224.7542 14.99717301214716 Astrocast 0.1 1 43798U 18099AS 22314.47802942 .00005724 00000-0 47938-3 0 9998 2 43798 97.6105 19.2328 0013708 113.3455 246.9212 14.98739482214971 JO-97 1 43803U 18099AX 22314.40841316 .00004713 00000-0 40332-3 0 9994 2 43803 97.6050 17.7042 0015775 132.1050 228.1516 14.97963511214913 Suomi 100 1 43804U 18099AY 22314.70476900 .00003780 00000-0 32585-3 0 9995 2 43804 97.6022 17.8823 0015211 134.6238 225.6228 14.97805168214961 Al Farabi 2 1 43805U 18099AZ 22314.89401622 .00006375 00000-0 53445-3 0 9996 2 43805 97.6079 18.7423 0014921 130.9220 229.3293 14.98643465215029 CHOMPTT 1 43855U 18104G 22314.41897422 .00011950 00000-0 40550-3 0 9991 2 43855 85.0309 313.6690 0016854 62.5750 297.7208 15.30237704217028 ISAT 1 43879U 18111D 22314.71119797 .00004072 00000-0 34033-3 0 9996 2 43879 97.6539 217.6514 0011234 182.2223 177.8951 14.99014285209551 UWE-4 1 43880U 18111E 22314.70139556 .00004529 00000-0 37697-3 0 9998 2 43880 97.6596 218.4314 0010633 175.9156 184.2156 14.99122924209604 Sparrow 1 43881U 18111F 22314.70149740 .00005074 00000-0 41927-3 0 9992 2 43881 97.6615 218.7209 0010671 172.1969 187.9422 14.99348542209619 Lume 1 1 43908U 18111AJ 22314.65104036 .00015807 00000-0 48509-3 0 9993 2 43908 97.1681 197.9432 0014682 272.5536 87.4027 15.33718062215770 FO-99 1 43937U 19003F 22314.76851804 .00019016 00000-0 56124-3 0 9998 2 43937 97.1159 342.6616 0018161 356.4219 3.6892 15.34854395212386 MYSat 1 1 44045U 18092F 22312.72189456 .00296325 00000-0 15388-2 0 9993 2 44045 51.6229 63.8893 0011172 310.9304 49.0729 15.79518389210430 AstroCast 0.2 1 44083U 19018F 22314.69307421 .00014954 00000-0 50452-3 0 9994 2 44083 97.3035 10.9451 0007822 332.9381 27.1451 15.30768405200827 AISTechSat 3 1 44103U 19018AB 22314.71838123 .00012791 00000-0 43597-3 0 9997 2 44103 97.2899 11.1627 0010587 343.7568 16.3332 15.30450276200994 AISat 1 1 44104U 19018AC 22314.76752729 .00010409 00000-0 26969-3 0 9998 2 44104 97.3890 38.6201 0048296 329.9272 29.9201 15.38013774202066 Prox-1 1 44339U 19036A 22314.50506808 .00005413 00000-0 11563-2 0 9997 2 44339 24.0021 350.8655 0010808 22.4297 337.6666 14.56087743179749 Oculus-ASR 1 44348U 19036K 22314.17645169 .00101299 -39124-5 63307-3 0 9992 2 44348 28.4959 253.6959 0170971 169.1073 191.3298 15.57684829187108 NO-104 1 44354U 19036R 22314.11596470 .00130052 -22456-5 73208-3 0 9993 2 44354 28.5205 235.3065 0158026 195.0998 164.4851 15.62008844187284 Move-IIb 1 44398U 19038N 22314.54969077 .00028501 00000-0 12124-2 0 9996 2 44398 97.6453 285.7103 0019309 349.7303 10.3519 15.22804009185230 SONATE 1 44400U 19038Q 22314.59717641 .00010828 00000-0 55980-3 0 9994 2 44400 97.6558 284.0323 0022609 354.7234 5.3750 15.16225510185061 BeeSat 9 1 44412U 19038AC 22314.39909319 .00014192 00000-0 66562-3 0 9996 2 44412 97.6538 285.1210 0018956 357.4883 2.6253 15.19624478184830 JAISAT-1 1 44419U 19038F 22314.40540927 .00013503 00000-0 62552-3 0 9991 2 44419 97.6540 286.0765 0017814 354.8271 5.2777 15.20082146185203 LightSail-2 1 44420U 19036AC 22314.90024803 .01656426 00000-0 36473-1 0 9995 2 44420 23.9894 230.2723 0023354 238.4284 121.3584 15.39737959179119 Taurus 1 1 44530U 19059C 22314.84353362 .00003956 00000-0 10815-2 0 9996 2 44530 98.5518 54.8449 0012974 42.6698 317.5457 14.47759234167020 Duchifat 3 1 44854U 19089C 22314.43206972 .00008241 00000-0 61756-3 0 9990 2 44854 36.9651 314.3040 0008093 320.4534 192.7508 15.02262006159880 OPS-SAT 1 44878U 19092F 22314.48611715 .00013189 00000-0 56190-3 0 9993 2 44878 97.4778 137.4644 0011422 185.3197 174.7920 15.23030661160394 TO-108 1 44881U 19093C 22314.84073631 .00001160 00000-0 15286-3 0 9994 2 44881 97.8831 31.8828 0016247 73.0023 287.2946 14.81922685156453 FloripaSat 1 1 44885U 19093G 22314.85595262 .00003814 00000-0 46630-3 0 9993 2 44885 97.8884 33.6086 0015456 78.3283 281.9599 14.83760519156552 RS-44 1 44909U 19096E 22314.62597885 .00000004 00000-0 -24628-4 0 9994 2 44909 82.5177 133.1831 0217017 338.2228 20.9750 12.79716587134255 BY70-2 1 45857U 20042B 22314.86858766 .00012709 00000-0 16062-2 0 9999 2 45857 97.9455 30.4219 0009238 6.1283 353.9954 14.81972108127123 UPMSat 2 1 46276U 20061E 22314.71006086 .00005267 00000-0 25162-3 0 9993 2 46276 97.3768 22.1767 0002440 59.5946 300.5529 15.19444925121079 AmicalSat 1 46287U 20061R 22314.73685463 .00008021 00000-0 44070-3 0 9999 2 46287 97.4312 20.9945 0003645 118.9222 241.2376 15.14359881120594 SALSAT 1 46495U 20068K 22314.38602788 .00004316 00000-0 30546-3 0 9993 2 46495 97.7449 255.8814 0017262 138.5398 221.7141 15.05268616116138 BY70-3 1 46839U 20079N 22314.85996251 .00060075 00000-0 10456-2 0 9991 2 46839 97.1827 25.5895 0005657 153.3461 318.5927 15.50561076112854 CAPE 3 1 47309U 21002A 22314.78694313 .00014322 00000-0 51594-3 0 9990 2 47309 60.6802 173.0045 0040892 68.5261 292.0181 15.28072811100782 AO-109 1 47311U 21002C 22314.14936208 .00013207 00000-0 47718-3 0 9999 2 47311 60.6828 172.8324 0037545 67.5308 292.9751 15.28163482100701 MiTEE 1 1 47314U 21002F 22314.78585818 .00028371 00000-0 77639-3 0 9992 2 47314 60.6779 158.5780 0033601 62.5302 297.9201 15.36679958101024 ExoCube 2 1 47319U 21002L 22314.78082866 .00011633 00000-0 42752-3 0 9993 2 47319 60.6810 171.8658 0038465 68.8543 291.6651 15.27678273100743 UVSQ-SAT 1 47438U 21006AB 22314.69876205 .00008823 00000-0 44060-3 0 9998 2 47438 97.4193 10.7223 0012747 123.5237 236.7216 15.17646160 99440 YUSAT 1 1 47439U 21006AC 22314.15181470 .00012704 00000-0 61834-3 0 9994 2 47439 97.4203 10.4218 0012402 124.5244 235.7163 15.18446591 99370 SOMP 2b 1 47445U 21006AJ 22314.13958400 .00007502 00000-0 38040-3 0 9997 2 47445 97.4166 9.7067 0012439 128.8412 231.3933 15.17165057 99340 IDEASSat 1 47458U 21006AX 22314.73099269 .00007392 00000-0 37670-3 0 9991 2 47458 97.4252 10.9159 0011574 125.8141 234.4170 15.17005537 99423 CubeSX-Sirius-HSE 1 47951U 21022V 22314.80934832 .00010129 00000-0 64402-3 0 9994 2 47951 97.5134 211.2273 0020970 10.3012 62.3954 15.08827712 90054 CubeSX-HSE 1 47952U 21022W 22314.85588947 .00008931 00000-0 56761-3 0 9999 2 47952 97.5144 211.3045 0020686 10.7584 53.5266 15.08885430 90066 KSU-Cubesat 1 47954U 21022Y 22314.71488413 .00007168 00000-0 45211-3 0 9992 2 47954 97.5152 211.3352 0020593 10.7234 349.4430 15.09238468 89777 GRBAlpha 1 47959U 21022AD 22314.85111431 .00008940 00000-0 56752-3 0 9996 2 47959 97.5149 211.3521 0020924 11.4243 52.9247 15.08924648 88886 Orbicraft-Zorkiy 1 47960U 21022AE 22314.81197976 .00010872 00000-0 68434-3 0 9999 2 47960 97.5170 211.5187 0020519 9.5827 76.5378 15.09188152 89575 STECCO 1 47962U 21022AG 22314.80825502 .00015484 00000-0 90461-3 0 9992 2 47962 97.5141 212.6261 0015348 5.2388 67.8789 15.11890380 88966 DO-111 1 47963U 21022AH 22314.71044364 .00030004 00000-0 14176-2 0 9995 2 47963 97.5170 214.7136 0015341 0.6482 359.4770 15.19257970 89107 MO-110 1 47964U 21022AJ 22314.66779528 .00012153 00000-0 70166-3 0 9994 2 47964 97.5152 212.8481 0017882 1.0661 359.0605 15.12337569 88968 FEES 1 48082U 21022AL 22314.71539186 .00016218 00000-0 89975-3 0 9990 2 48082 97.5158 213.0118 0014067 0.9826 359.1430 15.13755179 88687 CSS 1 48274U 21035A 22314.74135297 .00031367 00000-0 37913-3 0 9992 2 48274 41.4777 46.0804 0009580 267.4503 229.8385 15.59986171 87686 TUBIN 1 48900U 21059X 22314.87117447 .00007577 00000-0 40692-3 0 9999 2 48900 97.5738 83.2757 0009006 323.3305 192.9045 15.15172807 76075 IT-SPINS 1 49017U 21013G 22314.57329667 .00016343 00000-0 56855-3 0 9994 2 49017 51.5991 58.9889 0007874 249.0542 110.9596 15.29806878 76123 LEDSAT 1 49069U 21073D 22314.77837766 .00005424 00000-0 33526-3 0 9991 2 49069 97.5106 24.7629 0027103 150.1250 210.1533 15.09961126 67902 CUTE 1 49263U 21088D 22314.73411352 .00006516 00000-0 46916-3 0 9998 2 49263 97.5734 19.7180 0018402 287.7290 72.1928 15.04401797 61405 TeikyoSat 4 1 49396U 21102B 22314.70419630 .00002577 00000-0 20524-3 0 9996 2 49396 97.5365 8.1935 0017094 117.8952 242.4006 15.01112449 54980 Z-Sat 1 49399U 21102E 22314.71771620 .00003230 00000-0 24242-3 0 9998 2 49399 97.5164 9.3896 0023681 92.8499 267.5437 15.03104317 55058 KOSEN 1 1 49402U 21102H 22314.67172853 .00002971 00000-0 21617-3 0 9995 2 49402 97.5117 9.5763 0023828 84.2954 276.0988 15.04331749 55081 HO-113 1 50466U 21131B 22314.72594682 .00000462 00000-0 16567-3 0 9994 2 50466 98.5710 31.8381 0005537 80.0961 280.0851 14.38572780 45942 Tevel 1 50999U 22002R 22314.80260168 .00015544 00000-0 78251-3 0 9996 2 50999 97.4658 19.5815 0009321 268.1501 186.7399 15.17252733 45592 Grizu-263a 1 51025U 22002AT 22314.16547528 .00020982 00000-0 93826-3 0 9991 2 51025 97.4823 20.4625 0010316 275.7790 84.2270 15.21288741 45556 NO-116 1 51031U 22002AZ 22314.13765396 .00019501 00000-0 93007-3 0 9996 2 51031 97.4776 19.8619 0010975 277.6360 82.3628 15.19074567 45529 IRIS-A 1 51044U 22002BN 22314.72952180 .00006637 00000-0 36046-3 0 9990 2 51044 97.4663 18.9493 0007510 280.3065 79.7320 15.14827693 45544 DELFI-PQ 1 51074U 22002CU 22314.76207055 .00015882 00000-0 71919-3 0 9991 2 51074 97.4903 21.6741 0011544 307.2873 52.7309 15.20904629 45662 SO-115 1 51080U 22002DA 22313.99116228 .00014428 00000-0 68851-3 0 9999 2 51080 97.4922 20.6109 0011600 312.3611 47.6640 15.19115348 45523 SO-114 1 51081U 22002DB 22313.99132868 .00014271 00000-0 68077-3 0 9994 2 51081 97.4915 20.5782 0011904 312.0468 47.9753 15.19127565 45528 OreSat0 1 52017U 22026K 22314.57127154 .00008427 00000-0 42356-3 0 9995 2 52017 97.5079 312.7634 0027907 124.6326 235.7545 15.17162623 36328 Planetum 1 1 52738U 22057G 22314.77761630 .00008178 00000-0 45639-3 0 9994 2 52738 97.5255 67.2727 0008538 35.0601 325.1190 15.13778161 25558 Foresail-1 1 52766U 22057AL 22314.86339731 .00008537 00000-0 46358-3 0 9996 2 52766 97.5363 67.8885 0013180 13.8273 103.2415 15.14697008 25587 SNUGLITE 2 1 52899U 22065F 22314.84310449 .00001358 00000-0 30152-3 0 9994 2 52899 98.0375 101.3055 0008449 171.6891 188.4461 14.58545887 19030 CTIM 1 52950U 22074G 22314.48036153 .00018229 00000-0 68416-3 0 9998 2 52950 45.0079 124.5092 0007676 283.4983 76.5145 15.26989307 20026 GREENCUBE 1 53106U 22080B 22311.41681562 -.00000003 00000-0 00000-0 0 9993 2 53106 70.1748 36.7662 0008898 233.3262 126.6580 6.42557505 7507 AstroBioCubeSat 1 53107U 22080C 22314.45739856 -.00000003 00000-0 00000-0 0 9991 2 53107 70.1713 35.7913 0013105 224.4536 135.4790 6.42110459 7605 CELESTA 1 53111U 22080G 22255.68754390 -.00000003 00000-0 00000 0 0 9994 2 53111 70.1403 56.1372 0009077 226.1587 107.2159 6.42542501 3799 RS4S 1 53306U 98067TZ 22314.55072219 .00103957 00000-0 10601-2 0 9995 2 53306 51.6378 327.1591 0008355 55.0869 305.0910 15.64233658 17426 RS3S 1 53308U 98067TT 22314.74806518 .00103995 00000-0 10730-2 0 9990 2 53308 51.6374 326.2240 0008273 54.1278 306.0484 15.63937022 17510 RS1S 1 53309U 98067TU 22314.60726620 .00102096 00000-0 10355-2 0 9995 2 53309 51.6368 326.7784 0008492 58.4159 301.7664 15.64377318 17441 RS5S 1 53310U 98067TV 22314.74700898 .00103898 00000-0 10711-2 0 9998 2 53310 51.6372 326.2169 0008178 58.4393 301.7399 15.63959770 17498 RS6S 1 53311U 98067TW 22314.52961400 .00108465 00000-0 10821-2 0 9990 2 53311 51.6372 327.0090 0008365 50.9130 309.2608 15.64767519 17489 RS9S 1 53312U 98067TX 22314.73372888 .00097863 00000-0 99826-3 0 9992 2 53312 51.6375 326.1290 0008534 60.7401 299.4446 15.64251257 17457 RS12S 1 53313U 98067TY 22314.60401968 .00103122 00000-0 10483-2 0 9998 2 53313 51.6377 326.7623 0008029 59.5155 300.6632 15.64319742 17486 JAGSAT 1 53771U 98067UJ 22314.48663758 .00112333 00000-0 12148-2 0 9993 2 53771 51.6381 328.9804 0008549 71.9389 288.2536 15.62699897 10148 SelfieSat 1 53951U 22057BA 22314.73154960 .00009754 00000-0 53904-3 0 9995 2 53951 97.5307 67.4429 0010690 25.4929 334.6828 15.14056657 25556 /EX
